Home > Time Zones > World Clock > Weather > Canada > Ajax > Past weeks

Flag for Canada Weather past 2 weeks in Ajax, Ontario, Canada

Now
66 °F

Clear.


Feels Like: 66 °F
Forecast: 62 / 76 °F
Wind: 6 mph from West

Location: Toronto Buttonville

Current Time: Jul 26, 2014 at 1:20:02 AM

Latest Report: Jul 26, 2014 at 1:00 AM


Visibility: 15 mi

Pressure: 29.95 "Hg

Humidity: 64%

Dew point: 54 °F

Location of AjaxLocation

Historic Weather in Ajax — Graph

°F

Ajax temperature yesterday

Maximum temperature yesterday: 77 °F (at 3:00 PM)
Minimum temperature yesterday: 52 °F (at 4:00 AM)
Average temperature yesterday: 66 °F

Past Weeks' High & Low Weather Summary

 TemperatureHumidityPressure
High84 °F (Jul 12, 4:00 PM)100% (Jul 20, 4:00 AM)30.26 "Hg (Jul 20, 4:00 AM)
Low48 °F (Jul 17, 6:00 AM)33% (Jul 18, 8:00 PM)29.66 "Hg (Jul 15, 2:00 PM)
Average67 °F69%30.01 "Hg
* Reported Midnight between Jul 10 and Jul 11 — Midnight between Jul 25 and Jul 26, Ajax, Weather by CustomWeather, © 2014

Note: Actual official high and low records may vary slightly from our data, if they occured in-between our weather recording intervals... More about our weather records

Advertising

Ajax weather history for previous 24 hours

 ConditionsComfort  
Time TempWeatherWind HumidityBarometerVisibility
12:00 AM
Jul 26
68 °FClear.6 mph64%29.95 "Hg15 mi
11:00 PM
Jul 25
68 °FPassing clouds.9 mph64%29.95 "Hg15 mi
10:00 PM72 °FPassing clouds.7 mph57%29.95 "Hg15 mi
9:00 PM72 °FPartly sunny.5 mph50%29.94 "Hg15 mi
8:00 PM75 °FBroken clouds.7 mph44%29.93 "Hg15 mi
7:00 PM75 °FPartly sunny.8 mph44%29.94 "Hg15 mi
6:00 PM77 °FPartly sunny.7 mph42%29.94 "Hg15 mi
5:00 PM77 °FPartly sunny.6 mph42%29.95 "Hg15 mi
4:00 PM77 °FScattered clouds.7 mph42%29.97 "Hg15 mi
3:00 PM77 °FScattered clouds.10 mph42%29.98 "Hg15 mi
2:00 PM75 °FScattered clouds.2 mph44%29.99 "Hg15 mi
1:00 PM75 °FScattered clouds.7 mph41%30.01 "Hg15 mi
12:00 PM72 °FScattered clouds.6 mph44%30.04 "Hg15 mi
11:00 AM72 °FScattered clouds.7 mph44%30.06 "Hg15 mi
10:00 AM66 °FScattered clouds.5 mph52%30.06 "Hg15 mi
9:00 AM64 °FScattered clouds.5 mph60%30.06 "Hg15 mi
8:00 AM59 °FScattered clouds.No wind68%30.07 "Hg15 mi
7:00 AM54 °FPartly sunny.No wind88%30.06 "Hg15 mi
6:00 AM52 °FHigh level clouds.No wind88%30.04 "Hg15 mi
5:00 AM52 °FClear.No wind94%30.03 "Hg15 mi
4:00 AM52 °FPassing clouds.No wind94%30.02 "Hg15 mi
3:00 AM54 °FPassing clouds.No wind88%30.03 "Hg15 mi
2:00 AM55 °FPassing clouds.No wind77%30.03 "Hg15 mi
1:00 AM55 °FPassing clouds.2 mph82%30.05 "Hg15 mi
Weather by CustomWeather, © 2014

See weather overviewHow to use our weather pages